| time (UTC) | temp F | wind direction | speed MPH | gust MPH | rain 1hr in | rain 24hr in | rain mn in | humidity % | barometer mb |
| 20260903165459 | 64 | 288 | 3.0 | 5.0 | 0.00 | 0.15 | 0.15 | 99 | 1011.4 |
| 20260903164955 | 64 | 290 | 2.0 | 2.0 | 0.00 | 0.15 | 0.15 | 99 | 1011.5 |
| 20260903164449 | 64 | 311 | 1.0 | 2.0 | 0.00 | 0.15 | 0.15 | 99 | 1011.5 |
| 20260903163948 | 64 | 312 | 1.0 | 1.0 | 0.00 | 0.15 | 0.15 | 99 | 1011.4 |
| 20260903163439 | 64 | 281 | 2.0 | 3.0 | 0.00 | 0.15 | 0.15 | 99 | 1011.7 |
| 20260903162936 | 64 | 295 | 3.0 | 3.0 | 0.00 | 0.15 | 0.15 | 99 | 1011.8 |
| 20260903162432 | 64 | 298 | 2.0 | 2.0 | 0.00 | 0.15 | 0.15 | 99 | 1012.0 |
| 20260903161927 | 64 | 306 | 1.0 | 1.0 | 0.00 | 0.15 | 0.15 | 99 | 1011.8 |
| 20260903161422 | 63 | 308 | 0.0 | 1.0 | 0.00 | 0.15 | 0.15 | 99 | 1012.2 |
| 20260903160918 | 64 | 309 | 1.0 | 2.0 | 0.00 | 0.15 | 0.15 | 99 | 1012.1 |
| 20260903160417 | 64 | 309 | 2.0 | 2.0 | 0.00 | 0.15 | 0.15 | 99 | 1012.2 |
| 20260903155916 | 64 | 311 | 0.0 | 1.0 | 0.00 | 0.15 | 0.15 | 99 | 1012.2 |
| 20260903155411 | 64 | 305 | 1.0 | 1.0 | 0.00 | 0.15 | 0.15 | 99 | 1012.1 |
| 20260903154907 | 63 | 312 | 0.0 | 0.0 | 0.00 | 0.15 | 0.15 | 99 | 1012.3 |
| 20260903154403 | 63 | 311 | 0.0 | 0.0 | 0.00 | 0.15 | 0.15 | 99 | 1012.4 |
| 20260903153903 | 63 | 293 | 3.0 | 3.0 | 0.00 | 0.15 | 0.15 | 99 | 1012.5 |
| 20260903153358 | 63 | 296 | 2.0 | 2.0 | 0.00 | 0.15 | 0.15 | 99 | 1012.3 |
| 20260903152855 | 63 | 308 | 1.0 | 1.0 | 0.00 | 0.15 | 0.15 | 99 | 1012.5 |
| 20260903152350 | 64 | 309 | 1.0 | 2.0 | 0.00 | 0.15 | 0.15 | 99 | 1012.4 |
| 20260903151846 | 64 | 309 | 1.0 | 1.0 | 0.00 | 0.15 | 0.15 | 99 | 1012.8 |
| 20260903151341 | 63 | 299 | 3.0 | 3.0 | 0.00 | 0.15 | 0.15 | 99 | 1012.8 |
| 20260903150841 | 63 | 315 | 1.0 | 2.0 | 0.00 | 0.15 | 0.15 | 99 | 1012.9 |
| 20260903150335 | 63 | 310 | 1.0 | 1.0 | 0.00 | 0.15 | 0.15 | 99 | 1012.8 |
| 20260903145830 | 63 | 304 | 1.0 | 1.0 | 0.00 | 0.15 | 0.15 | 99 | 1013.0 |
| 20260903145326 | 63 | 309 | 1.0 | 1.0 | 0.05 | 0.15 | 0.15 | 99 | 1013.0 |
| 20260903144825 | 63 | 291 | 2.0 | 2.0 | 0.05 | 0.15 | 0.15 | 99 | 1013.0 |
| 20260903144320 | 63 | 309 | 1.0 | 2.0 | 0.00 | 0.14 | 0.14 | 99 | 1013.0 |
| 20260903143815 | 63 | 309 | 1.0 | 1.0 | 0.00 | 0.14 | 0.14 | 99 | 1013.3 |
| 20260903143312 | 63 | 310 | 0.0 | 0.0 | 0.00 | 0.14 | 0.14 | 99 | 1013.4 |
| 20260903142808 | 63 | 307 | 1.0 | 1.0 | 0.00 | 0.14 | 0.14 | 99 | 1013.3 |
| 20260903142306 | 62 | 308 | 0.0 | 0.0 | 0.00 | 0.14 | 0.14 | 99 | 1013.3 |
| 20260903141759 | 63 | 302 | 1.0 | 1.0 | 0.00 | 0.14 | 0.14 | 99 | 1013.1 |
| 20260903141255 | 63 | 309 | 0.0 | 0.0 | 0.00 | 0.14 | 0.14 | 99 | 1013.3 |
| 20260903140749 | 63 | 310 | 1.0 | 1.0 | 0.00 | 0.14 | 0.14 | 99 | 1013.3 |
| 20260903140244 | 62 | 305 | 1.0 | 1.0 | 0.07 | 0.14 | 0.14 | 99 | 1013.2 |
| 20260903135740 | 62 | 296 | 2.0 | 2.0 | 0.07 | 0.14 | 0.14 | 99 | 1013.5 |
| 20260903135235 | 62 | 307 | 0.0 | 0.0 | 0.00 | 0.13 | 0.13 | 99 | 1013.3 |
| 20260903134734 | 62 | 311 | 0.0 | 0.0 | 0.00 | 0.13 | 0.13 | 99 | 1013.4 |
| 20260903134230 | 62 | 310 | 0.0 | 0.0 | 0.00 | 0.13 | 0.13 | 99 | 1013.5 |
| 20260903133727 | 62 | 308 | 0.0 | 0.0 | 0.00 | 0.13 | 0.13 | 99 | 1013.3 |
| 20260903133224 | 62 | 312 | 0.0 | 0.0 | 0.00 | 0.13 | 0.13 | 99 | 1013.2 |
| 20260903132724 | 62 | 308 | 0.0 | 0.0 | 0.00 | 0.13 | 0.13 | 99 | 1013.5 |
| 20260903132224 | 62 | 310 | 0.0 | 0.0 | 0.00 | 0.13 | 0.13 | 99 | 1013.3 |
| 20260903131719 | 62 | 308 | 0.0 | 0.0 | 0.00 | 0.13 | 0.13 | 99 | 1013.3 |
| 20260903131213 | 62 | 309 | 0.0 | 0.0 | 0.07 | 0.13 | 0.13 | 99 | 1013.6 |
| 20260903130708 | 62 | 315 | 0.0 | 0.0 | 0.07 | 0.13 | 0.13 | 99 | 1013.3 |
| 20260903130202 | 62 | 311 | 0.0 | 0.0 | 0.00 | 0.12 | 0.12 | 99 | 1013.6 |
| 20260903125701 | 61 | 308 | 0.0 | 0.0 | 0.00 | 0.12 | 0.12 | 99 | 1013.4 |
| 20260903125156 | 62 | 311 | 0.0 | 0.0 | 0.00 | 0.12 | 0.12 | 99 | 1013.6 |
| 20260903124655 | 62 | 309 | 0.0 | 0.0 | 0.05 | 0.12 | 0.12 | 99 | 1013.7 |
| 20260903124150 | 61 | 305 | 0.0 | 0.0 | 0.05 | 0.12 | 0.12 | 99 | 1014.0 |
| 20260903123649 | 61 | 313 | 0.0 | 0.0 | 0.07 | 0.11 | 0.11 | 99 | 1014.1 |
| 20260903123148 | 61 | 312 | 0.0 | 0.0 | 0.07 | 0.11 | 0.11 | 99 | 1014.1 |
| 20260903122648 | 61 | 312 | 0.0 | 0.0 | 0.00 | 0.10 | 0.10 | 99 | 1014.0 |
| 20260903122143 | 61 | 310 | 0.0 | 0.0 | 0.00 | 0.10 | 0.10 | 99 | 1014.3 |
| 20260903121641 | 61 | 311 | 0.0 | 0.0 | 0.00 | 0.10 | 0.10 | 99 | 1014.0 |
| 20260903121138 | 61 | 313 | 0.0 | 0.0 | 0.00 | 0.10 | 0.10 | 99 | 1014.1 |
| 20260903120636 | 61 | 312 | 0.0 | 0.0 | 0.00 | 0.10 | 0.10 | 99 | 1014.1 |
| 20260903120131 | 61 | 313 | 0.0 | 0.0 | 0.00 | 0.10 | 0.10 | 99 | 1014.2 |
| 20260903115629 | 61 | 309 | 0.0 | 0.0 | 0.00 | 0.10 | 0.10 | 99 | 1014.2 |
| 20260903115125 | 61 | 310 | 0.0 | 0.0 | 0.00 | 0.10 | 0.10 | 99 | 1014.0 |
| 20260903114620 | 61 | 309 | 0.0 | 1.0 | 0.00 | 0.10 | 0.10 | 99 | 1014.0 |
| 20260903114115 | 61 | 304 | 0.0 | 0.0 | 0.00 | 0.10 | 0.10 | 99 | 1013.9 |
| 20260903113610 | 61 | 310 | 0.0 | 0.0 | 0.00 | 0.10 | 0.10 | 99 | 1013.8 |
| 20260903113107 | 61 | 309 | 0.0 | 0.0 | 0.00 | 0.10 | 0.10 | 99 | 1013.9 |
| 20260903112603 | 61 | 308 | 0.0 | 1.0 | 0.00 | 0.10 | 0.10 | 99 | 1013.9 |
| 20260903112103 | 61 | 311 | 0.0 | 0.0 | 0.00 | 0.10 | 0.10 | 99 | 1014.1 |
| 20260903111602 | 61 | 312 | 0.0 | 0.0 | 0.00 | 0.10 | 0.10 | 99 | 1014.1 |
| 20260903111057 | 61 | 311 | 0.0 | 0.0 | 0.00 | 0.10 | 0.10 | 99 | 1014.1 |
| 20260903110553 | 61 | 311 | 0.0 | 0.0 | 0.00 | 0.10 | 0.10 | 99 | 1013.9 |
| 20260903110048 | 61 | 309 | 0.0 | 0.0 | 0.00 | 0.10 | 0.10 | 99 | 1014.0 |
| 20260903105542 | 61 | 302 | 2.0 | 2.0 | 0.00 | 0.10 | 0.10 | 99 | 1014.0 |
| 20260903105032 | 61 | 313 | 0.0 | 0.0 | 0.00 | 0.10 | 0.10 | 99 | 1014.1 |
| 20260903104532 | 61 | 311 | 0.0 | 0.0 | 0.00 | 0.10 | 0.10 | 99 | 1014.2 |
| 20260903104028 | 61 | 312 | 0.0 | 0.0 | 0.00 | 0.10 | 0.10 | 99 | 1014.2 |
| 20260903103523 | 61 | 312 | 0.0 | 0.0 | 0.00 | 0.10 | 0.10 | 99 | 1014.2 |
| 20260903103020 | 61 | 312 | 0.0 | 1.0 | 0.00 | 0.10 | 0.10 | 99 | 1014.3 |
| 20260903102515 | 62 | 313 | 0.0 | 0.0 | 0.00 | 0.10 | 0.10 | 99 | 1014.4 |
| 20260903102014 | 62 | 313 | 0.0 | 0.0 | 0.00 | 0.10 | 0.10 | 99 | 1014.5 |
| 20260903101508 | 62 | 311 | 0.0 | 0.0 | 0.00 | 0.10 | 0.10 | 99 | 1014.1 |
| 20260903101004 | 62 | 311 | 0.0 | 0.0 | 0.00 | 0.10 | 0.10 | 99 | 1014.2 |
| 20260903100458 | 62 | 311 | 0.0 | 0.0 | 0.05 | 0.10 | 0.10 | 99 | 1014.4 |
| 20260903095955 | 62 | 313 | 0.0 | 0.0 | 0.05 | 0.10 | 0.10 | 99 | 1014.5 |
| 20260903095450 | 62 | 314 | 0.0 | 0.0 | 0.07 | 0.09 | 0.09 | 99 | 1014.6 |
| 20260903094945 | 62 | 312 | 0.0 | 0.0 | 0.24 | 0.09 | 0.09 | 99 | 1014.5 |
| 20260903094444 | 62 | 310 | 0.0 | 0.0 | 0.35 | 0.08 | 0.08 | 99 | 1014.7 |
| 20260903093935 | 63 | 313 | 0.0 | 0.0 | 0.28 | 0.06 | 0.06 | 99 | 1014.6 |
| 20260903093430 | 63 | 305 | 0.0 | 0.0 | 0.05 | 0.02 | 0.02 | 99 | 1014.9 |
| 20260903092926 | 63 | 314 | 0.0 | 0.0 | 0.07 | 0.01 | 0.01 | 99 | 1014.9 |
| 20260903092426 | 63 | 312 | 0.0 | 0.0 | 0.07 | 0.01 | 0.01 | 99 | 1014.9 |
| 20260903091924 | 63 | 312 | 0.0 | 0.0 | 0.00 | 0.00 | 0.00 | 99 | 1015.0 |
| 20260903091423 | 63 | 312 | 0.0 | 0.0 | 0.00 | 0.00 | 0.00 | 99 | 1014.9 |
| 20260903090918 | 63 | 310 | 0.0 | 0.0 | 0.00 | 0.00 | 0.00 | 99 | 1014.9 |
| 20260903090414 | 63 | 311 | 0.0 | 0.0 | 0.00 | 0.00 | 0.00 | 99 | 1014.9 |
| 20260903085912 | 63 | 312 | 0.0 | 0.0 | 0.00 | 0.00 | 0.00 | 99 | 1014.4 |
| 20260903085411 | 63 | 311 | 0.0 | 0.0 | 0.00 | 0.00 | 0.00 | 99 | 1014.6 |
| 20260903084911 | 63 | 312 | 0.0 | 0.0 | 0.00 | 0.00 | 0.00 | 99 | 1014.3 |
| 20260903084409 | 63 | 313 | 0.0 | 0.0 | 0.00 | 0.00 | 0.00 | 99 | 1014.3 |
| 20260903083905 | 63 | 310 | 0.0 | 0.0 | 0.00 | 0.00 | 0.00 | 99 | 1014.3 |
| 20260903083401 | 63 | 309 | 0.0 | 0.0 | 0.00 | 0.00 | 0.00 | 99 | 1014.3 |
| 20260903082859 | 63 | 315 | 0.0 | 0.0 | 0.00 | 0.00 | 0.00 | 99 | 1014.6 |
| 20260903082354 | 62 | 310 | 0.0 | 0.0 | 0.00 | 0.00 | 0.00 | 99 | 1014.6 |
| 20260903081850 | 62 | 312 | 0.0 | 0.0 | 0.00 | 0.00 | 0.00 | 99 | 1014.5 |
| 20260903081345 | 62 | 312 | 0.0 | 0.0 | 0.00 | 0.00 | 0.00 | 99 | 1014.6 |
| 20260903080841 | 62 | 311 | 0.0 | 0.0 | 0.00 | 0.00 | 0.00 | 99 | 1014.4 |
| 20260903080338 | 62 | 312 | 0.0 | 0.0 | 0.00 | 0.00 | 0.00 | 99 | 1014.5 |
| 20260903075837 | 62 | 308 | 1.0 | 2.0 | 0.00 | 0.00 | 0.00 | 99 | 1014.4 |
| 20260903075333 | 62 | 311 | 0.0 | 0.0 | 0.00 | 0.00 | 0.00 | 99 | 1014.5 |
| 20260903074826 | 62 | 309 | 0.0 | 0.0 | 0.00 | 0.00 | 0.00 | 99 | 1014.5 |
| 20260903074321 | 62 | 309 | 0.0 | 0.0 | 0.00 | 0.00 | 0.00 | 99 | 1014.8 |
| 20260903073817 | 62 | 309 | 0.0 | 0.0 | 0.00 | 0.00 | 0.00 | 99 | 1014.5 |
| 20260903073312 | 62 | 310 | 0.0 | 0.0 | 0.00 | 0.00 | 0.00 | 99 | 1014.8 |
| 20260903072808 | 62 | 310 | 0.0 | 0.0 | 0.00 | 0.00 | 0.00 | 99 | 1015.0 |
| 20260903072306 | 62 | 311 | 0.0 | 0.0 | 0.00 | 0.00 | 0.00 | 99 | 1014.9 |
| 20260903071800 | 62 | 309 | 0.0 | 0.0 | 0.00 | 0.00 | 0.00 | 99 | 1015.0 |
| 20260903071256 | 62 | 310 | 0.0 | 0.0 | 0.00 | 0.00 | 0.00 | 99 | 1015.0 |
| 20260903070750 | 62 | 312 | 0.0 | 0.0 | 0.00 | 0.00 | 0.00 | 99 | 1015.2 |
| 20260903070246 | 62 | 310 | 0.0 | 0.0 | 0.00 | 0.00 | 0.00 | 99 | 1015.4 |
| 20260903065741 | 62 | 310 | 0.0 | 0.0 | 0.00 | 0.00 | 0.00 | 99 | 1015.6 |
| 20260903065240 | 62 | 310 | 0.0 | 0.0 | 0.00 | 0.00 | 0.00 | 99 | 1015.5 |
| 20260903064739 | 62 | 308 | 0.0 | 0.0 | 0.00 | 0.00 | 0.00 | 99 | 1015.8 |
| 20260903064235 | 62 | 309 | 0.0 | 0.0 | 0.00 | 0.00 | 0.00 | 99 | 1015.7 |
| 20260903063731 | 62 | 311 | 0.0 | 0.0 | 0.00 | 0.00 | 0.00 | 99 | 1016.1 |
| 20260903063226 | 61 | 307 | 0.0 | 0.0 | 0.00 | 0.00 | 0.00 | 99 | 1016.1 |
| 20260903062722 | 61 | 312 | 0.0 | 0.0 | 0.00 | 0.00 | 0.00 | 99 | 1016.2 |
| 20260903062221 | 61 | 310 | 0.0 | 0.0 | 0.00 | 0.00 | 0.00 | 99 | 1016.5 |
| 20260903061718 | 62 | 312 | 0.0 | 0.0 | 0.00 | 0.00 | 0.00 | 99 | 1016.4 |
| 20260903061216 | 62 | 309 | 0.0 | 0.0 | 0.00 | 0.00 | 0.00 | 99 | 1016.3 |
| 20260903060711 | 61 | 309 | 0.0 | 0.0 | 0.00 | 0.00 | 0.00 | 99 | 1016.3 |
| 20260903060206 | 61 | 309 | 0.0 | 0.0 | 0.00 | 0.00 | 0.00 | 99 | 1016.3 |
| 20260903055704 | 61 | 312 | 0.0 | 0.0 | 0.00 | 0.00 | 0.00 | 99 | 1016.6 |
| 20260903055202 | 61 | 310 | 0.0 | 0.0 | 0.00 | 0.00 | 0.00 | 99 | 1016.4 |
| 20260903054657 | 62 | 310 | 0.0 | 0.0 | 0.00 | 0.00 | 0.00 | 99 | 1016.4 |
| 20260903054153 | 61 | 308 | 0.0 | 0.0 | 0.00 | 0.00 | 0.00 | 99 | 1016.5 |
| 20260903053649 | 61 | 307 | 0.0 | 0.0 | 0.00 | 0.00 | 0.00 | 99 | 1016.7 |
| 20260903053144 | 61 | 309 | 0.0 | 0.0 | 0.00 | 0.00 | 0.00 | 99 | 1016.8 |
| 20260903052640 | 61 | 309 | 0.0 | 0.0 | 0.00 | 0.00 | 0.00 | 99 | 1016.7 |
| 20260903052135 | 61 | 311 | 0.0 | 0.0 | 0.00 | 0.00 | 0.00 | 99 | 1016.8 |
| 20260903051630 | 61 | 309 | 0.0 | 0.0 | 0.00 | 0.00 | 0.00 | 99 | 1016.7 |
| 20260903051126 | 62 | 307 | 1.0 | 1.0 | 0.00 | 0.00 | 0.00 | 99 | 1016.6 |
| 20260903050626 | 62 | 309 | 0.0 | 0.0 | 0.00 | 0.00 | 0.00 | 99 | 1016.9 |
| 20260903050120 | 62 | 310 | 0.0 | 0.0 | 0.00 | 0.00 | 0.00 | 99 | 1016.9 |
| 20260903045620 | 62 | 310 | 0.0 | 0.0 | 0.00 | 0.00 | 0.00 | 99 | 1016.9 |
| 20260903045117 | 62 | 305 | 0.0 | 0.0 | 0.00 | 0.00 | 0.00 | 99 | 1016.9 |
| 20260903044612 | 62 | 310 | 0.0 | 0.0 | 0.00 | 0.00 | 0.00 | 99 | 1017.0 |
| 20260903044108 | 62 | 311 | 0.0 | 0.0 | 0.00 | 0.00 | 0.00 | 99 | 1017.0 |
| 20260903043604 | 61 | 309 | 0.0 | 0.0 | 0.00 | 0.00 | 0.00 | 99 | 1017.0 |
| 20260903043103 | 61 | 310 | 0.0 | 0.0 | 0.00 | 0.00 | 0.00 | 99 | 1017.2 |
| 20260903042557 | 61 | 310 | 0.0 | 0.0 | 0.00 | 0.00 | 0.00 | 99 | 1017.2 |
| 20260903042053 | 61 | 311 | 0.0 | 0.0 | 0.00 | 0.00 | 0.00 | 99 | 1017.4 |
| 20260903041550 | 61 | 305 | 0.0 | 0.0 | 0.00 | 0.00 | 0.00 | 99 | 1017.5 |
| 20260903041044 | 62 | 313 | 0.0 | 0.0 | 0.00 | 0.00 | 0.00 | 99 | 1017.5 |
| 20260903040543 | 61 | 310 | 0.0 | 0.0 | 0.00 | 0.00 | 0.00 | 99 | 1017.4 |
| 20260903040041 | 61 | 314 | 0.0 | 0.0 | 0.00 | 0.00 | 0.00 | 99 | 1017.7 |
| 20260903035541 | 61 | 314 | 0.0 | 0.0 | 0.00 | 0.00 | 0.00 | 99 | 1017.7 |
| 20260903035037 | 61 | 314 | 0.0 | 0.0 | 0.00 | 0.00 | 0.00 | 99 | 1017.7 |
| 20260903034531 | 61 | 314 | 0.0 | 0.0 | 0.00 | 0.00 | 0.00 | 99 | 1017.8 |
| 20260903034027 | 61 | 312 | 0.0 | 0.0 | 0.00 | 0.00 | 0.00 | 99 | 1017.9 |
| 20260903033521 | 61 | 312 | 0.0 | 0.0 | 0.00 | 0.00 | 0.00 | 99 | 1017.8 |
| 20260903033017 | 61 | 310 | 0.0 | 0.0 | 0.00 | 0.00 | 0.00 | 99 | 1017.7 |
| 20260903032512 | 62 | 309 | 0.0 | 0.0 | 0.00 | 0.00 | 0.00 | 99 | 1017.9 |
| 20260903032007 | 62 | 311 | 0.0 | 0.0 | 0.00 | 0.00 | 0.00 | 99 | 1017.7 |
| 20260903031507 | 62 | 310 | 0.0 | 0.0 | 0.00 | 0.00 | 0.00 | 99 | 1017.9 |
| 20260903031002 | 62 | 308 | 0.0 | 0.0 | 0.00 | 0.00 | 0.00 | 99 | 1018.0 |
| 20260903030458 | 62 | 307 | 0.0 | 0.0 | 0.00 | 0.00 | 0.00 | 99 | 1017.8 |
| 20260903025953 | 62 | 310 | 0.0 | 0.0 | 0.00 | 0.00 | 0.00 | 99 | 1017.8 |
| 20260903025449 | 62 | 310 | 0.0 | 0.0 | 0.00 | 0.00 | 0.00 | 99 | 1017.9 |
| 20260903024944 | 62 | 308 | 0.0 | 0.0 | 0.00 | 0.00 | 0.00 | 99 | 1017.8 |
| 20260903024443 | 62 | 310 | 0.0 | 0.0 | 0.00 | 0.00 | 0.00 | 99 | 1018.0 |
| 20260903023938 | 62 | 310 | 0.0 | 0.0 | 0.00 | 0.00 | 0.00 | 99 | 1018.0 |
| 20260903023434 | 62 | 310 | 0.0 | 0.0 | 0.00 | 0.00 | 0.00 | 99 | 1018.2 |
| 20260903022929 | 62 | 309 | 0.0 | 0.0 | 0.00 | 0.00 | 0.00 | 99 | 1018.3 |
| 20260903022428 | 62 | 311 | 0.0 | 0.0 | 0.00 | 0.00 | 0.00 | 99 | 1018.4 |
| 20260903021926 | 62 | 310 | 0.0 | 0.0 | 0.00 | 0.00 | 0.00 | 99 | 1018.3 |
| 20260903021423 | 62 | 305 | 0.0 | 0.0 | 0.00 | 0.00 | 0.00 | 99 | 1018.3 |
| 20260903020917 | 62 | 310 | 0.0 | 0.0 | 0.00 | 0.00 | 0.00 | 99 | 1018.6 |
| 20260903020412 | 62 | 310 | 0.0 | 0.0 | 0.00 | 0.00 | 0.00 | 99 | 1018.2 |
| 20260903015907 | 61 | 307 | 0.0 | 0.0 | 0.00 | 0.00 | 0.00 | 99 | 1018.3 |
| 20260903015403 | 61 | 312 | 0.0 | 0.0 | 0.00 | 0.00 | 0.00 | 99 | 1018.4 |
| 20260903014857 | 61 | 310 | 0.0 | 0.0 | 0.00 | 0.00 | 0.00 | 99 | 1018.3 |
| 20260903014351 | 61 | 310 | 0.0 | 0.0 | 0.00 | 0.00 | 0.00 | 99 | 1018.5 |
| 20260903013847 | 61 | 310 | 0.0 | 0.0 | 0.00 | 0.00 | 0.00 | 99 | 1018.2 |
| 20260903013346 | 61 | 310 | 0.0 | 0.0 | 0.00 | 0.00 | 0.00 | 99 | 1018.5 |
| 20260903012846 | 61 | 307 | 0.0 | 0.0 | 0.00 | 0.00 | 0.00 | 99 | 1018.3 |
| 20260903012340 | 62 | 304 | 1.0 | 2.0 | 0.00 | 0.00 | 0.00 | 99 | 1018.5 |
| 20260903011839 | 61 | 310 | 0.0 | 0.0 | 0.00 | 0.00 | 0.00 | 99 | 1018.2 |
| 20260903011338 | 61 | 309 | 0.0 | 0.0 | 0.00 | 0.00 | 0.00 | 99 | 1018.2 |
| 20260903010834 | 61 | 309 | 0.0 | 0.0 | 0.00 | 0.00 | 0.00 | 99 | 1018.3 |
| 20260903010329 | 61 | 310 | 0.0 | 0.0 | 0.00 | 0.00 | 0.00 | 99 | 1018.5 |
| 20260903005827 | 61 | 308 | 0.0 | 0.0 | 0.00 | 0.00 | 0.00 | 99 | 1018.2 |
| 20260903005323 | 61 | 311 | 0.0 | 1.0 | 0.00 | 0.00 | 0.00 | 99 | 1018.1 |
| 20260903004819 | 61 | 300 | 2.0 | 2.0 | 0.00 | 0.00 | 0.00 | 99 | 1018.2 |
| 20260903004314 | 61 | 303 | 1.0 | 1.0 | 0.00 | 0.00 | 0.00 | 99 | 1018.0 |
| 20260903003809 | 61 | 298 | 2.0 | 2.0 | 0.00 | 0.00 | 0.00 | 98 | 1018.2 |
| 20260903003304 | 61 | 304 | 1.0 | 1.0 | 0.00 | 0.00 | 0.00 | 98 | 1018.0 |
| 20260903002759 | 61 | 301 | 1.0 | 2.0 | 0.00 | 0.00 | 0.00 | 98 | 1018.2 |
| 20260903002258 | 61 | 308 | 0.0 | 0.0 | 0.00 | 0.00 | 0.00 | 98 | 1018.1 |
| 20260903001753 | 61 | 311 | 0.0 | 0.0 | 0.00 | 0.00 | 0.00 | 98 | 1018.2 |
| 20260903001248 | 61 | 307 | 0.0 | 0.0 | 0.00 | 0.00 | 0.00 | 98 | 1018.4 |
| 20260903000743 | 61 | 309 | 0.0 | 1.0 | 0.00 | 0.00 | 0.00 | 98 | 1018.4 |
| 20260903000237 | 61 | 310 | 0.0 | 1.0 | 0.00 | 0.00 | 0.00 | 98 | 1018.3 |
| 20260902235735 | 62 | 304 | 1.0 | 2.0 | 0.00 | 0.00 | 0.00 | 98 | 1018.6 |
| 20260902235230 | 62 | 309 | 0.0 | 0.0 | 0.00 | 0.00 | 0.00 | 98 | 1018.5 |
| 20260902234725 | 62 | 307 | 0.0 | 0.0 | 0.00 | 0.00 | 0.00 | 98 | 1018.7 |
| 20260902234224 | 62 | 306 | 1.0 | 2.0 | 0.00 | 0.00 | 0.00 | 98 | 1018.7 |
| 20260902233724 | 62 | 311 | 0.0 | 0.0 | 0.00 | 0.00 | 0.00 | 97 | 1018.8 |
| 20260902233218 | 62 | 311 | 0.0 | 0.0 | 0.00 | 0.00 | 0.00 | 97 | 1019.0 |
| 20260902232716 | 62 | 310 | 0.0 | 0.0 | 0.00 | 0.00 | 0.00 | 98 | 1019.1 |
| 20260902232211 | 61 | 310 | 0.0 | 0.0 | 0.00 | 0.00 | 0.00 | 98 | 1019.2 |
| 20260902231706 | 62 | 311 | 0.0 | 0.0 | 0.00 | 0.00 | 0.00 | 98 | 1018.8 |
| 20260902231206 | 62 | 308 | 0.0 | 1.0 | 0.00 | 0.00 | 0.00 | 98 | 1018.9 |
| 20260902230701 | 62 | 307 | 1.0 | 1.0 | 0.00 | 0.00 | 0.00 | 97 | 1019.0 |
| 20260902230200 | 62 | 309 | 1.0 | 2.0 | 0.00 | 0.00 | 0.00 | 97 | 1018.8 |
| 20260902225655 | 62 | 303 | 2.0 | 2.0 | 0.00 | 0.00 | 0.00 | 97 | 1018.8 |
| 20260902225155 | 62 | 308 | 1.0 | 2.0 | 0.00 | 0.00 | 0.00 | 96 | 1019.1 |
| 20260902224653 | 62 | 306 | 1.0 | 1.0 | 0.00 | 0.00 | 0.00 | 96 | 1019.3 |
| 20260902224149 | 62 | 309 | 0.0 | 1.0 | 0.00 | 0.00 | 0.00 | 96 | 1019.3 |
| 20260902223645 | 62 | 305 | 1.0 | 1.0 | 0.00 | 0.00 | 0.00 | 96 | 1019.5 |
| 20260902223144 | 62 | 311 | 0.0 | 0.0 | 0.00 | 0.00 | 0.00 | 96 | 1019.4 |
| 20260902222638 | 62 | 310 | 0.0 | 0.0 | 0.00 | 0.00 | 0.00 | 96 | 1019.6 |
| 20260902222136 | 62 | 308 | 1.0 | 2.0 | 0.00 | 0.00 | 0.00 | 96 | 1019.5 |
| 20260902221631 | 63 | 309 | 1.0 | 1.0 | 0.00 | 0.00 | 0.00 | 95 | 1019.5 |
| 20260902221126 | 63 | 306 | 0.0 | 1.0 | 0.00 | 0.00 | 0.00 | 95 | 1019.5 |
| 20260902220622 | 63 | 308 | 1.0 | 1.0 | 0.00 | 0.00 | 0.00 | 95 | 1019.5 |
| 20260902220116 | 63 | 306 | 1.0 | 2.0 | 0.00 | 0.00 | 0.00 | 95 | 1019.6 |
| 20260902215612 | 63 | 311 | 0.0 | 0.0 | 0.00 | 0.00 | 0.00 | 95 | 1019.6 |
| 20260902215107 | 63 | 308 | 1.0 | 1.0 | 0.00 | 0.00 | 0.00 | 96 | 1019.2 |
| 20260902214602 | 63 | 306 | 1.0 | 2.0 | 0.00 | 0.00 | 0.00 | 95 | 1019.5 |
| 20260902214101 | 63 | 310 | 1.0 | 1.0 | 0.00 | 0.00 | 0.00 | 95 | 1019.4 |
| 20260902213557 | 63 | 310 | 1.0 | 1.0 | 0.00 | 0.00 | 0.00 | 94 | 1019.5 |
| 20260902213055 | 63 | 307 | 1.0 | 1.0 | 0.00 | 0.00 | 0.00 | 94 | 1019.5 |
| 20260902212551 | 63 | 308 | 2.0 | 2.0 | 0.00 | 0.00 | 0.00 | 94 | 1019.6 |
| 20260902212048 | 64 | 306 | 1.0 | 2.0 | 0.00 | 0.00 | 0.00 | 94 | 1019.3 |
| 20260902211544 | 64 | 310 | 1.0 | 1.0 | 0.00 | 0.00 | 0.00 | 94 | 1019.5 |
| 20260902211044 | 64 | 303 | 1.0 | 1.0 | 0.00 | 0.00 | 0.00 | 94 | 1019.2 |
| 20260902210543 | 63 | 305 | 2.0 | 2.0 | 0.00 | 0.00 | 0.00 | 94 | 1019.6 |
| 20260902210037 | 64 | 304 | 2.0 | 2.0 | 0.00 | 0.00 | 0.00 | 93 | 1019.5 |
| 20260902205531 | 64 | 295 | 2.0 | 2.0 | 0.00 | 0.00 | 0.00 | 93 | 1019.4 |
| 20260902205027 | 64 | 309 | 1.0 | 1.0 | 0.00 | 0.00 | 0.00 | 92 | 1019.6 |
| 20260902204527 | 64 | 302 | 1.0 | 2.0 | 0.00 | 0.00 | 0.00 | 92 | 1019.9 |
| 20260902204022 | 64 | 307 | 1.0 | 2.0 | 0.00 | 0.00 | 0.00 | 92 | 1020.0 |
| 20260902203518 | 65 | 312 | 1.0 | 1.0 | 0.00 | 0.00 | 0.00 | 91 | 1019.8 |
| 20260902203016 | 65 | 311 | 1.0 | 1.0 | 0.00 | 0.00 | 0.00 | 90 | 1019.8 |
| 20260902202513 | 65 | 325 | 0.0 | 0.0 | 0.00 | 0.00 | 0.00 | 90 | 1019.8 |
| 20260902202009 | 65 | 304 | 1.0 | 1.0 | 0.00 | 0.00 | 0.00 | 89 | 1019.8 |
| 20260902201504 | 65 | 305 | 1.0 | 1.0 | 0.00 | 0.00 | 0.00 | 90 | 1019.7 |
| 20260902201004 | 65 | 305 | 2.0 | 2.0 | 0.00 | 0.00 | 0.00 | 91 | 1019.8 |
| 20260902200459 | 64 | 308 | 1.0 | 1.0 | 0.00 | 0.00 | 0.00 | 90 | 1020.0 |
| 20260902195954 | 64 | 289 | 3.0 | 3.0 | 0.00 | 0.00 | 0.00 | 89 | 1020.1 |
| 20260902195450 | 64 | 307 | 3.0 | 3.0 | 0.00 | 0.00 | 0.00 | 90 | 1020.1 |
| 20260902194944 | 65 | 301 | 2.0 | 2.0 | 0.00 | 0.00 | 0.00 | 89 | 1020.3 |
| 20260902194443 | 65 | 312 | 2.0 | 2.0 | 0.00 | 0.00 | 0.00 | 90 | 1020.4 |
| 20260902193938 | 65 | 306 | 2.0 | 2.0 | 0.00 | 0.00 | 0.00 | 88 | 1020.5 |
| 20260902193434 | 66 | 307 | 1.0 | 1.0 | 0.00 | 0.00 | 0.00 | 86 | 1020.5 |
| 20260902192933 | 65 | 302 | 1.0 | 2.0 | 0.00 | 0.00 | 0.00 | 87 | 1020.3 |
| 20260902192432 | 65 | 304 | 2.0 | 2.0 | 0.00 | 0.00 | 0.00 | 88 | 1020.3 |
| 20260902191931 | 66 | 305 | 2.0 | 2.0 | 0.00 | 0.00 | 0.00 | 87 | 1020.6 |
| 20260902191426 | 66 | 308 | 1.0 | 2.0 | 0.00 | 0.00 | 0.00 | 86 | 1020.6 |
| 20260902190921 | 65 | 312 | 0.0 | 1.0 | 0.00 | 0.00 | 0.00 | 88 | 1020.6 |
| 20260902190417 | 65 | 310 | 1.0 | 1.0 | 0.00 | 0.00 | 0.00 | 88 | 1020.3 |
| 20260902185912 | 65 | 300 | 2.0 | 2.0 | 0.00 | 0.00 | 0.00 | 88 | 1020.4 |
| 20260902185409 | 65 | 306 | 2.0 | 2.0 | 0.00 | 0.00 | 0.00 | 88 | 1020.4 |
| 20260902184903 | 66 | 298 | 1.0 | 2.0 | 0.00 | 0.00 | 0.00 | 88 | 1020.2 |
| 20260902184358 | 65 | 310 | 1.0 | 2.0 | 0.00 | 0.00 | 0.00 | 88 | 1020.4 |
| 20260902183854 | 65 | 303 | 1.0 | 1.0 | 0.00 | 0.00 | 0.00 | 88 | 1020.6 |
| 20260902183350 | 66 | 307 | 1.0 | 2.0 | 0.00 | 0.00 | 0.00 | 86 | 1020.6 |
| 20260902182846 | 65 | 310 | 1.0 | 1.0 | 0.00 | 0.00 | 0.00 | 86 | 1020.3 |
| 20260902182342 | 65 | 293 | 2.0 | 2.0 | 0.00 | 0.00 | 0.00 | 87 | 1020.4 |
| 20260902181838 | 65 | 307 | 1.0 | 1.0 | 0.00 | 0.00 | 0.00 | 88 | 1020.5 |
| 20260902181333 | 65 | 306 | 1.0 | 1.0 | 0.00 | 0.00 | 0.00 | 88 | 1020.7 |
| 20260902180827 | 65 | 308 | 1.0 | 2.0 | 0.00 | 0.00 | 0.00 | 88 | 1020.8 |
| 20260902180324 | 65 | 307 | 1.0 | 1.0 | 0.00 | 0.00 | 0.00 | 86 | 1020.7 |
| 20260902175818 | 65 | 307 | 2.0 | 2.0 | 0.00 | 0.00 | 0.00 | 87 | 1020.9 |
| 20260902175314 | 65 | 306 | 2.0 | 2.0 | 0.00 | 0.00 | 0.00 | 87 | 1020.7 |
| 20260902174809 | 65 | 296 | 3.0 | 3.0 | 0.00 | 0.00 | 0.00 | 86 | 1020.7 |
| 20260902174306 | 66 | 308 | 2.0 | 2.0 | 0.00 | 0.00 | 0.00 | 87 | 1020.6 |
| 20260902173801 | 66 | 306 | 4.0 | 5.0 | 0.00 | 0.00 | 0.00 | 85 | 1020.3 |
| 20260902173255 | 66 | 288 | 2.0 | 3.0 | 0.00 | 0.00 | 0.00 | 85 | 1020.3 |
| 20260902172750 | 65 | 301 | 3.0 | 3.0 | 0.00 | 0.00 | 0.00 | 87 | 1020.6 |
| 20260902172249 | 65 | 300 | 3.0 | 3.0 | 0.00 | 0.00 | 0.00 | 87 | 1020.5 |
| 20260902171744 | 66 | 299 | 2.0 | 2.0 | 0.00 | 0.00 | 0.00 | 88 | 1020.3 |
| 20260902171239 | 65 | 299 | 3.0 | 5.0 | 0.00 | 0.00 | 0.00 | 87 | 1020.4 |
| 20260902170736 | 65 | 270 | 3.0 | 5.0 | 0.00 | 0.00 | 0.00 | 87 | 1020.3 |
| 20260902170231 | 66 | 295 | 3.0 | 3.0 | 0.00 | 0.00 | 0.00 | 87 | 1020.4 |